Regional Weather Roundup
Issued by NWS

Home | Current Version | Previous Version | Graphics & Text | Print | Product List | Glossary On
Versions: 1 2 3 4 5 6 7 8 9 10 11 12 13 14 15 16 17 18 19 20 21 22 23 24 25 26 27 28 29 30 31 32 33 34 35 36 37 38 39 40 41 42 43 44 45 46 47 48 49 50
000
ASUS45 KSLC 230210
RWRUT

UTAH REGIONAL WEATHER ROUNDUP
NATIONAL WEATHER SERVICE SALT LAKE CITY UT
800 PM MDT FRI MAY 22 2015

UTZ001>011-023>025-230300-

NORTHERN UTAH

CITY           SKY/WX    TMP DP  RH WIND       PRES   REMARKS
BRIGHAM CITY   MOCLDY    61  44  52 SE6       29.88R
HILL AFB       MOCLDY    57  42  56 E9        29.89R
LOGAN          CLOUDY    55  44  66 SE6       29.88S
OGDEN          MOCLDY    61  42  49 SE5       29.87R
PROVO AIRPORT  MOCLDY    59  41  51 SW9       29.90R
SALT LAKE CITY CLOUDY    62  40  44 S5        29.87R
VERNAL         CLOUDY    53  42  66 S3        29.95R
WENDOVER       CLOUDY    59  45  58 N14       29.87R
HEBER CITY     CLOUDY    52  43  71 CALM      29.93R
WEST JORDAN    CLOUDY    57  41  54 SW13      29.90R

$$

UTZ012>022-026-027-230300-

SOUTHERN/CENTRAL UTAH

CITY           SKY/WX    TMP DP  RH WIND       PRES   REMARKS
BLANDING       MOCLDY    59  31  34 S5        29.95S
BRYCE CANYON   MOCLDY    42  36  79 CALM      29.99R
CEDAR CITY     CLOUDY    46  40  79 SW3       29.97R
DELTA          CLOUDY    53  42  66 NE3       29.90S
HANKSVILLE     CLOUDY    68  23  18 SE15G21   29.82R
MILFORD        LGT RAIN  48  41  76 SE9       29.96R
MOAB/CYNLANDS  CLOUDY    66  35  31 N6        29.80R
PRICE          CLOUDY    54  35  48 N15G22    29.89F
ST GEORGE      CLOUDY    61  37  41 E7        29.94R
KANAB          CLOUDY    45  37  76 S8        30.03R

$$

REGIONAL REPORTS     COLORADO/ARIZONA

CITY           SKY/WX    TMP DP  RH WIND       PRES   REMARKS
CRAIG, CO      MOCLDY    51  42  71 NE3       29.96S
GRAND JUNCTION CLOUDY    54  47  77 SE13      29.89R THUNDER
RIFLE          MOCLDY    59  35  40 CALM      29.91S
MONTROSE       CLOUDY    52  39  61 S12       29.98S
CORTEZ         CLEAR     52  44  74 E13       29.92F
PAGE, AZ       MOCLDY    60  33  36 SW8G17    29.91R
GRAND CANYON   MOCLDY    39  36  89 W6        30.02S WCI  35
KINGMAN        MOCLDY    59  36  42 SW12      29.93R
FLAGSTAFF      CLOUDY    41  33  73 W6        30.01R

$$

REGIONAL REPORTS    NEVADA/IDAHO/WYOMING

CITY           SKY/WX    TMP DP  RH WIND       PRES   REMARKS
LAS VEGAS, NV  MOCLDY    68  39  34 W6        29.82R
ELY            CLOUDY    48  40  73 S10       29.95S
ELKO           CLOUDY    50  44  80 W15       29.94S
POCATELLO, ID  PTCLDY    60  50  69 SW9       29.87R
BURLEY         MOCLDY    57  48  72 S3        29.85S
EVANSTON, WY   LGT RAIN  44  40  85 CALM      29.99R
ROCK SPRINGS   RAIN      43  39  86 SW20      29.98R FOG
KEMMERER       DRIZZLE   41  39  93 SW6       29.99S

$$


USA.gov is the U.S. government's official web portal to all federal, state and local government web resources and services.